QPF
0.00 0.00 0.00 0.00 0.00 0.00 0.00 0.00 0.00 0.00 0.00 0.00 0.00 0.00 0.00 0.00 0.00 0.00 0.00 0.00 0.00 0.00
0.00 0.00 0.00 0.00 0.00 0.00 0.00 0.00 0.00 0.00 0.00 0.00 0.00 0.00 0.00 0.00 0.00 0.00 0.00 0.00 0.00 0.00
0.00 0.00 0.00 0.00 0.00 0.00 0.00 0.00 0.00 0.00 0.00 0.00 0.00 0.00 0.00 0.00 0.00 0.00 0.00 0.00 0.00 0.00
0.00 0.00 0.00 0.00 0.00 0.00 0.00 0.00 0.00 0.00 0.00 0.00 0.00 0.00 0.00 0.00 0.00 0.00 0.00 0.00 0.00 0.00
0.00 0.00 0.00 0.00 0.00 0.00 0.00 0.00 0.00 0.00 0.00 0.00 0.00 0.00 0.00 0.00 0.00 0.00 0.00 0.00 0.00 0.00
0.00 0.00 0.00 0.00 0.00 0.00 0.00 0.00 0.00 0.00 0.00 0.00 0.00 0.00 0.00 0.00 0.00 0.00 0.00 0.00 0.00 0.00
0.00 0.00 0.00 0.00 0.00 0.00 0.00 0.00 0.00 0.00 0.00 0.00 0.00 0.00 0.00 0.00 0.00 0.00 0.00 0.00 0.00 0.00
0.00 0.00 0.00 0.00 0.00 0.00 0.00 0.00 0.00 0.00 0.00 0.00 0.00 0.00 0.00 0.00 0.00 0.00 0.00 0.00 0.00 0.00
0.00 0.00 0.00 0.00 0.00 0.00 0.00 0.00 0.00 0.00 0.00 0.00 0.00 0.00 0.00 0.00 0.00 0.00 0.00 0.00 0.00 0.00
0.00 0.00 0.00 0.00 0.00 0.00 0.00 0.00 0.00 0.00 0.00 0.00 0.00 0.00 0.00 0.00 0.00 0.00 0.00 0.00 0.00 0.00
0.00 0.00 0.00 0.00 0.00 0.00 0.00 0.00 0.00 0.00 0.00 0.00 0.00 0.00 0.00 0.00 0.00 0.00 0.00 0.00 0.00 0.00
0.00 0.00 0.00 0.00 0.00 0.00 0.00 0.00 0.00 0.00 0.00 0.00 0.00 0.00 0.00 0.00 0.00 0.00 0.00 0.00 0.00 0.00
0.00 0.00 0.00 0.00 0.00 0.00 0.00 0.00 0.00 0.00 0.00 0.00 0.00 0.00 0.00 0.00 0.00 0.00 0.00 0.00 0.00 0.00
0.00 0.00 0.00 0.00 0.00 0.00 0.00 0.00 0.00 0.00 0.00 0.00 0.00 0.00 0.00 0.00 0.00 0.00 0.00 0.00 0.00 0.00
MSLP
1013.30 1014.21 1015.30 1016.23 1016.83 1017.32 1017.77 1018.31 1018.68 1018.84 1019.06 1019.37 1019.48 1019.61 1019.72 1019.79 1019.87 1019.89 1019.82 1019.83 1019.83 1019.72
1013.74 1014.45 1015.43 1016.37 1016.92 1017.54 1018.11 1018.52 1018.70 1018.93 1019.29 1019.48 1019.55 1019.59 1019.66 1019.75 1019.68 1019.67 1019.59 1019.57 1019.44 1019.40
1014.14 1014.84 1015.65 1016.42 1017.20 1017.85 1018.36 1018.54 1018.82 1019.14 1019.37 1019.60 1019.65 1019.63 1019.68 1019.58 1019.52 1019.47 1019.33 1019.19 1019.15 1018.94
1014.63 1015.29 1016.00 1016.80 1017.49 1017.94 1018.35 1018.70 1018.99 1019.22 1019.53 1019.69 1019.67 1019.66 1019.53 1019.42 1019.26 1019.22 1019.05 1018.87 1018.75 1018.56
1014.99 1015.71 1016.49 1017.22 1017.71 1018.08 1018.53 1018.82 1018.98 1019.31 1019.57 1019.65 1019.64 1019.44 1019.28 1019.26 1019.07 1019.03 1018.99 1018.71 1018.49 1018.22
1015.56 1016.23 1016.88 1017.45 1017.93 1018.28 1018.53 1018.82 1019.08 1019.37 1019.54 1019.61 1019.43 1019.19 1019.06 1018.95 1018.90 1018.86 1018.74 1018.54 1018.33 1018.01
1015.96 1016.55 1017.10 1017.65 1018.10 1018.35 1018.65 1018.95 1019.27 1019.45 1019.58 1019.49 1019.27 1019.06 1018.84 1018.78 1018.73 1018.65 1018.54 1018.37 1018.05 1017.60
1016.30 1016.83 1017.29 1017.80 1018.23 1018.55 1018.83 1019.20 1019.36 1019.51 1019.54 1019.44 1019.18 1018.95 1018.69 1018.52 1018.41 1018.44 1018.35 1017.98 1017.57 1017.11
1016.57 1017.04 1017.51 1018.02 1018.49 1018.79 1019.13 1019.33 1019.51 1019.61 1019.51 1019.37 1019.18 1018.88 1018.42 1018.10 1018.07 1018.10 1017.87 1017.57 1017.05 1016.58
1016.74 1017.30 1017.84 1018.32 1018.70 1019.02 1019.32 1019.56 1019.73 1019.61 1019.53 1019.44 1019.18 1018.65 1018.28 1017.96 1017.71 1017.66 1017.45 1017.06 1016.46 1015.94
1016.94 1017.58 1018.18 1018.62 1018.97 1019.24 1019.56 1019.68 1019.62 1019.63 1019.57 1019.35 1019.00 1018.56 1018.07 1017.63 1017.37 1017.27 1016.93 1016.45 1015.95 1015.40
1017.22 1017.92 1018.51 1018.94 1019.26 1019.53 1019.65 1019.68 1019.76 1019.68 1019.43 1019.27 1018.91 1018.43 1017.78 1017.25 1017.02 1016.77 1016.34 1015.81 1015.34 1014.92
1017.57 1018.21 1018.79 1019.22 1019.46 1019.60 1019.75 1019.88 1019.70 1019.47 1019.36 1019.25 1018.81 1018.19 1017.62 1017.01 1016.60 1016.28 1015.65 1015.11 1014.74 1014.44
1018.06 1018.64 1019.06 1019.32 1019.55 1019.76 1019.87 1019.76 1019.79 1019.74 1019.38 1018.89 1018.53 1018.07 1017.41 1016.75 1016.11 1015.66 1015.00 1014.66 1014.35 1013.96
Thickness
5602 5596 5587 5580 5575 5571 5566 5559 5554 5550 5545 5539 5534 5529 5524 5518 5512 5507 5501 5494 5487 5481
5592 5587 5579 5571 5567 5561 5555 5549 5544 5540 5533 5528 5524 5519 5514 5507 5503 5496 5490 5483 5476 5468
5581 5575 5569 5563 5556 5550 5543 5539 5535 5529 5523 5517 5513 5508 5502 5497 5491 5485 5478 5472 5464 5455
5570 5564 5558 5552 5546 5540 5535 5530 5524 5518 5512 5506 5501 5496 5490 5485 5480 5473 5466 5458 5450 5442
5559 5553 5547 5541 5535 5531 5525 5519 5515 5508 5501 5496 5490 5485 5481 5474 5467 5459 5451 5444 5436 5429
5547 5542 5536 5531 5525 5520 5516 5510 5504 5498 5491 5485 5480 5475 5468 5462 5454 5445 5437 5429 5421 5414
5537 5532 5527 5521 5515 5511 5507 5500 5493 5487 5480 5474 5468 5463 5456 5449 5440 5431 5422 5414 5407 5400
5527 5522 5518 5512 5506 5501 5496 5488 5482 5475 5468 5462 5455 5450 5444 5436 5428 5417 5409 5402 5394 5386
5518 5513 5508 5502 5496 5490 5483 5477 5470 5463 5456 5449 5443 5437 5432 5425 5416 5406 5398 5390 5383 5372
5510 5505 5498 5492 5486 5479 5472 5464 5457 5451 5444 5436 5429 5425 5418 5412 5404 5394 5385 5376 5368 5358
5502 5494 5487 5481 5474 5467 5459 5452 5446 5439 5431 5424 5417 5412 5407 5402 5392 5382 5371 5361 5349 5338
5492 5484 5477 5469 5462 5455 5448 5441 5433 5426 5420 5412 5405 5401 5396 5391 5381 5370 5359 5347 5331 5318
5482 5474 5465 5457 5451 5444 5436 5429 5422 5415 5408 5401 5394 5389 5384 5377 5367 5356 5348 5334 5317 5301
5469 5461 5453 5446 5439 5432 5425 5418 5410 5403 5395 5389 5382 5375 5370 5362 5352 5341 5333 5317 5300 5284